Time,TemperatureF,DewpointF,PressureIn,WindDirection,WindDirectionDegrees,WindSpeedMPH,WindSpeedGustMPH,Humidity,HourlyPrecipIn,Conditions,Clouds,dailyrainin,SolarRadiationWatts/m^2,SoftwareType,DateUTC
2013-12-07 00:12:00,13.6,2.0,30.66,NNE,32,3.0,-999.0,61,-99.99,,,0.00,0,weatherlink.com 1.10,2013-12-07 06:12:00,
2013-12-07 00:27:00,13.5,2.0,30.66,NNE,32,4.0,-999.0,60,-99.99,,,0.00,0,weatherlink.com 1.10,2013-12-07 06:27:00,
2013-12-07 00:42:00,13.1,2.0,30.68,North,9,7.0,-999.0,60,-99.99,,,0.00,0,weatherlink.com 1.10,2013-12-07 06:42:00,
2013-12-07 00:57:00,12.8,2.0,30.67,North,360,6.0,-999.0,61,-99.99,,,0.00,0,weatherlink.com 1.10,2013-12-07 06:57:00,
2013-12-07 01:12:00,12.3,1.0,30.67,North,5,4.0,-999.0,61,-99.99,,,0.00,0,weatherlink.com 1.10,2013-12-07 07:12:00,
2013-12-07 01:27:00,11.9,1.0,30.67,NNE,12,4.0,-999.0,61,-99.99,,,0.00,0,weatherlink.com 1.10,2013-12-07 07:27:00,
2013-12-07 01:42:00,11.6,1.0,30.66,North,5,4.0,-999.0,62,-99.99,,,0.00,0,weatherlink.com 1.10,2013-12-07 07:42:00,
2013-12-07 01:57:00,11.4,1.0,30.67,NNE,15,6.0,-999.0,62,-99.99,,,0.00,0,weatherlink.com 1.10,2013-12-07 07:57:00,
2013-12-07 02:12:00,11.2,0.0,30.67,North,5,3.0,-999.0,62,-99.99,,,0.00,0,weatherlink.com 1.10,2013-12-07 08:12:00,
2013-12-07 02:27:00,10.9,0.0,30.67,NNW,346,4.0,-999.0,62,-99.99,,,0.00,0,weatherlink.com 1.10,2013-12-07 08:27:00,
2013-12-07 02:42:00,10.9,1.0,30.68,NNE,13,4.0,-999.0,63,-99.99,,,0.00,0,weatherlink.com 1.10,2013-12-07 08:42:00,
2013-12-07 02:57:00,10.7,0.0,30.68,NNE,15,5.0,-999.0,63,-99.99,,,0.00,0,weatherlink.com 1.10,2013-12-07 08:57:00,
2013-12-07 03:12:00,10.5,0.0,30.67,NNE,17,3.0,-999.0,63,-99.99,,,0.00,0,weatherlink.com 1.10,2013-12-07 09:12:00,
2013-12-07 03:42:00,10.4,0.0,30.68,North,5,3.0,-999.0,63,-99.99,,,0.00,0,weatherlink.com 1.10,2013-12-07 09:42:00,
2013-12-07 03:57:00,10.2,0.0,30.68,NE,40,6.0,-999.0,63,-99.99,,,0.00,0,weatherlink.com 1.10,2013-12-07 09:57:00,
2013-12-07 04:12:00,10.0,0.0,30.68,NNE,17,7.0,-999.0,64,-99.99,,,0.00,0,weatherlink.com 1.10,2013-12-07 10:12:00,
2013-12-07 04:27:00,9.9,0.0,30.67,North,11,5.0,-999.0,64,-99.99,,,0.00,0,weatherlink.com 1.10,2013-12-07 10:27:00,
2013-12-07 04:42:00,9.5,0.0,30.66,NNE,16,5.0,-999.0,65,-99.99,,,0.00,0,weatherlink.com 1.10,2013-12-07 10:42:00,
2013-12-07 04:57:00,9.2,0.0,30.66,NNE,18,6.0,-999.0,66,-99.99,,,0.00,0,weatherlink.com 1.10,2013-12-07 10:57:00,
2013-12-07 05:12:00,9.2,0.0,30.67,NNE,17,10.0,-999.0,66,-99.99,,,0.00,0,weatherlink.com 1.10,2013-12-07 11:12:00,
2013-12-07 05:27:00,9.0,0.0,30.68,NNE,27,5.0,-999.0,66,-99.99,,,0.00,0,weatherlink.com 1.10,2013-12-07 11:27:00,
2013-12-07 05:42:00,8.8,-1.0,30.68,NNE,22,2.0,-999.0,66,-99.99,,,0.00,0,weatherlink.com 1.10,2013-12-07 11:42:00,
2013-12-07 05:57:00,8.6,0.0,30.68,NNE,15,4.0,-999.0,67,-99.99,,,0.00,0,weatherlink.com 1.10,2013-12-07 11:57:00,
2013-12-07 06:12:00,8.4,-1.0,30.68,North,360,7.0,-999.0,67,-99.99,,,0.00,0,weatherlink.com 1.10,2013-12-07 12:12:00,
2013-12-07 06:27:00,8.4,-1.0,30.68,NE,38,8.0,-999.0,67,-99.99,,,0.00,0,weatherlink.com 1.10,2013-12-07 12:27:00,
2013-12-07 06:42:00,8.4,0.0,30.69,NE,38,5.0,-999.0,68,-99.99,,,0.00,0,weatherlink.com 1.10,2013-12-07 12:42:00,
2013-12-07 06:57:00,8.4,0.0,30.68,NNE,22,6.0,-999.0,68,-99.99,,,0.00,0,weatherlink.com 1.10,2013-12-07 12:57:00,
2013-12-07 07:12:00,8.3,0.0,30.69,NNE,19,6.0,-999.0,68,-99.99,,,0.00,0,weatherlink.com 1.10,2013-12-07 13:12:00,
2013-12-07 07:27:00,8.3,0.0,30.68,NNE,12,4.0,-999.0,69,-99.99,,,0.00,0,weatherlink.com 1.10,2013-12-07 13:27:00,
2013-12-07 07:42:00,8.1,0.0,30.69,NNE,31,7.0,-999.0,70,-99.99,,,0.00,18,weatherlink.com 1.10,2013-12-07 13:42:00,
2013-12-07 07:57:00,8.3,0.0,30.70,North,5,3.0,-999.0,70,-99.99,,,0.00,28,weatherlink.com 1.10,2013-12-07 13:57:00,
2013-12-07 08:12:00,8.3,0.0,30.70,North,5,6.0,-999.0,70,-99.99,,,0.00,53,weatherlink.com 1.10,2013-12-07 14:12:00,
2013-12-07 08:27:00,8.3,0.0,30.71,North,355,4.0,-999.0,70,-99.99,,,0.00,74,weatherlink.com 1.10,2013-12-07 14:27:00,
2013-12-07 08:42:00,8.6,1.0,30.71,NNE,13,4.0,-999.0,70,-99.99,,,0.00,109,weatherlink.com 1.10,2013-12-07 14:42:00,
2013-12-07 08:57:00,9.2,1.0,30.71,North,10,3.0,-999.0,70,-99.99,,,0.00,160,weatherlink.com 1.10,2013-12-07 14:57:00,
2013-12-07 09:12:00,10.0,2.0,30.71,NNE,25,3.0,-999.0,69,-99.99,,,0.00,192,weatherlink.com 1.10,2013-12-07 15:12:00,
2013-12-07 09:27:00,11.1,2.0,30.72,NNE,28,11.0,-999.0,68,-99.99,,,0.00,202,weatherlink.com 1.10,2013-12-07 15:27:00,
2013-12-07 09:42:00,12.1,3.0,30.72,NNE,15,3.0,-999.0,67,-99.99,,,0.00,236,weatherlink.com 1.10,2013-12-07 15:42:00,
2013-12-07 09:57:00,12.6,3.0,30.72,ENE,58,2.0,-999.0,66,-99.99,,,0.00,271,weatherlink.com 1.10,2013-12-07 15:57:00,
2013-12-07 10:12:00,13.1,3.0,30.71,NE,40,10.0,-999.0,64,-99.99,,,0.00,288,weatherlink.com 1.10,2013-12-07 16:12:00,
2013-12-07 10:27:00,13.5,3.0,30.70,NE,52,7.0,-999.0,63,-99.99,,,0.00,260,weatherlink.com 1.10,2013-12-07 16:27:00,
2013-12-07 10:42:00,14.0,3.0,30.68,NNE,32,4.0,-999.0,62,-99.99,,,0.00,318,weatherlink.com 1.10,2013-12-07 16:42:00,
2013-12-07 10:57:00,14.8,4.0,30.67,East,96,6.0,-999.0,62,-99.99,,,0.00,287,weatherlink.com 1.10,2013-12-07 16:57:00,
2013-12-07 11:12:00,15.2,4.0,30.66,NE,44,11.0,-999.0,60,-99.99,,,0.00,269,weatherlink.com 1.10,2013-12-07 17:12:00,
2013-12-07 11:27:00,15.7,4.0,30.64,NE,40,5.0,-999.0,59,-99.99,,,0.00,272,weatherlink.com 1.10,2013-12-07 17:27:00,
2013-12-07 11:42:00,16.1,4.0,30.63,NE,56,7.0,-999.0,58,-99.99,,,0.00,250,weatherlink.com 1.10,2013-12-07 17:42:00,
2013-12-07 11:56:00,16.4,4.0,30.62,ENE,57,8.0,-999.0,58,-99.99,,,0.00,290,weatherlink.com 1.10,2013-12-07 17:56:00,
2013-12-07 12:11:00,16.7,4.0,30.61,NE,49,15.0,-999.0,58,-99.99,,,0.00,343,weatherlink.com 1.10,2013-12-07 18:11:00,
2013-12-07 12:26:00,17.2,5.0,30.59,NE,36,11.0,-999.0,58,-99.99,,,0.00,411,weatherlink.com 1.10,2013-12-07 18:26:00,
2013-12-07 12:41:00,17.7,5.0,30.58,NNE,30,3.0,-999.0,57,-99.99,,,0.00,443,weatherlink.com 1.10,2013-12-07 18:41:00,
2013-12-07 12:56:00,18.1,5.0,30.56,NE,36,9.0,-999.0,57,-99.99,,,0.00,357,weatherlink.com 1.10,2013-12-07 18:56:00,
2013-12-07 13:11:00,18.0,5.0,30.56,NE,53,4.0,-999.0,56,-99.99,,,0.00,315,weatherlink.com 1.10,2013-12-07 19:11:00,
2013-12-07 13:26:00,18.4,5.0,30.56,East,99,5.0,-999.0,56,-99.99,,,0.00,265,weatherlink.com 1.10,2013-12-07 19:26:00,
2013-12-07 13:41:00,18.8,5.0,30.55,NE,43,4.0,-999.0,55,-99.99,,,0.00,213,weatherlink.com 1.10,2013-12-07 19:41:00,
2013-12-07 13:57:00,19.1,6.0,30.53,NNE,32,2.0,-999.0,56,-99.99,,,0.00,192,weatherlink.com 1.10,2013-12-07 19:57:00,
2013-12-07 14:12:00,19.2,5.0,30.53,ENE,76,3.0,-999.0,55,-99.99,,,0.00,155,weatherlink.com 1.10,2013-12-07 20:12:00,
2013-12-07 14:27:00,19.4,6.0,30.51,NE,36,2.0,-999.0,57,-99.99,,,0.00,149,weatherlink.com 1.10,2013-12-07 20:27:00,
2013-12-07 14:42:00,19.2,5.0,30.50,East,91,4.0,-999.0,55,-99.99,,,0.00,162,weatherlink.com 1.10,2013-12-07 20:42:00,
2013-12-07 14:57:00,19.2,6.0,30.51,East,94,4.0,-999.0,56,-99.99,,,0.00,97,weatherlink.com 1.10,2013-12-07 20:57:00,
2013-12-07 15:12:00,19.2,7.0,30.51,ENE,70,0.0,-999.0,58,-99.99,,,0.00,56,weatherlink.com 1.10,2013-12-07 21:12:00,
2013-12-07 15:27:00,19.2,7.0,30.51,ENE,66,3.0,-999.0,58,-99.99,,,0.00,63,weatherlink.com 1.10,2013-12-07 21:27:00,
2013-12-07 15:42:00,19.2,7.0,30.52,NE,43,3.0,-999.0,59,-99.99,,,0.00,56,weatherlink.com 1.10,2013-12-07 21:42:00,
2013-12-07 15:57:00,19.4,7.0,30.51,NE,44,0.0,-999.0,60,-99.99,,,0.00,56,weatherlink.com 1.10,2013-12-07 21:57:00,
2013-12-07 16:12:00,19.4,7.0,30.51,NE,43,4.0,-999.0,60,-99.99,,,0.00,37,weatherlink.com 1.10,2013-12-07 22:12:00,
2013-12-07 16:27:00,19.4,8.0,30.50,NE,41,3.0,-999.0,61,-99.99,,,0.00,23,weatherlink.com 1.10,2013-12-07 22:27:00,
2013-12-07 16:42:00,19.5,8.0,30.49,NE,43,5.0,-999.0,62,-99.99,,,0.00,12,weatherlink.com 1.10,2013-12-07 22:42:00,
2013-12-07 16:57:00,19.7,9.0,30.48,NE,46,4.0,-999.0,62,-99.99,,,0.00,0,weatherlink.com 1.10,2013-12-07 22:57:00,
2013-12-07 17:12:00,19.5,8.0,30.47,ENE,63,6.0,-999.0,62,-99.99,,,0.00,0,weatherlink.com 1.10,2013-12-07 23:12:00,
2013-12-07 17:27:00,19.5,8.0,30.46,ENE,61,3.0,-999.0,62,-99.99,,,0.00,0,weatherlink.com 1.10,2013-12-07 23:27:00,
2013-12-07 17:42:00,19.4,8.0,30.45,ENE,74,5.0,-999.0,62,-99.99,,,0.00,0,weatherlink.com 1.10,2013-12-07 23:42:00,
2013-12-07 17:57:00,19.4,8.0,30.44,East,92,4.0,-999.0,62,-99.99,,,0.00,0,weatherlink.com 1.10,2013-12-07 23:57:00,
2013-12-07 18:12:00,19.2,8.0,30.45,East,85,6.0,-999.0,63,-99.99,,,0.00,0,weatherlink.com 1.10,2013-12-08 00:12:00,
2013-12-07 18:27:00,19.2,8.0,30.45,ENE,60,3.0,-999.0,63,-99.99,,,0.00,0,weatherlink.com 1.10,2013-12-08 00:27:00,
2013-12-07 18:42:00,19.2,8.0,30.45,NE,43,2.0,-999.0,62,-99.99,,,0.00,0,weatherlink.com 1.10,2013-12-08 00:42:00,
2013-12-07 18:57:00,19.2,9.0,30.45,NE,46,3.0,-999.0,64,-99.99,,,0.00,0,weatherlink.com 1.10,2013-12-08 00:57:00,
2013-12-07 19:12:00,19.4,9.0,30.44,East,79,3.0,-999.0,64,-99.99,,,0.00,0,weatherlink.com 1.10,2013-12-08 01:12:00,
2013-12-07 19:27:00,19.4,9.0,30.43,East,91,5.0,-999.0,63,-99.99,,,0.00,0,weatherlink.com 1.10,2013-12-08 01:27:00,
2013-12-07 19:42:00,19.2,8.0,30.44,East,83,4.0,-999.0,63,-99.99,,,0.00,0,weatherlink.com 1.10,2013-12-08 01:42:00,
2013-12-07 20:12:00,19.4,9.0,30.43,ESE,114,4.0,-999.0,64,-99.99,,,0.00,0,weatherlink.com 1.10,2013-12-08 02:12:00,
2013-12-07 20:27:00,19.4,9.0,30.42,ESE,109,0.0,-999.0,64,-99.99,,,0.00,0,weatherlink.com 1.10,2013-12-08 02:27:00,
2013-12-07 20:42:00,19.4,9.0,30.41,ESE,120,4.0,-999.0,65,-99.99,,,0.00,0,weatherlink.com 1.10,2013-12-08 02:42:00,
2013-12-07 20:57:00,19.4,9.0,30.41,East,92,0.0,-999.0,65,-99.99,,,0.00,0,weatherlink.com 1.10,2013-12-08 02:57:00,
2013-12-07 21:12:00,19.4,9.0,30.39,East,87,0.0,-999.0,65,-99.99,,,0.00,0,weatherlink.com 1.10,2013-12-08 03:12:00,
2013-12-07 21:27:00,19.4,9.0,30.38,East,94,3.0,-999.0,65,-99.99,,,0.00,0,weatherlink.com 1.10,2013-12-08 03:27:00,
2013-12-07 21:42:00,19.5,9.0,30.39,East,95,0.0,-999.0,65,-99.99,,,0.00,0,weatherlink.com 1.10,2013-12-08 03:42:00,
2013-12-07 21:56:00,19.5,9.0,30.39,ESE,111,0.0,-999.0,65,-99.99,,,0.00,0,weatherlink.com 1.10,2013-12-08 03:56:00,
2013-12-07 22:11:00,19.7,10.0,30.39,ESE,111,0.0,-999.0,66,-99.99,,,0.00,0,weatherlink.com 1.10,2013-12-08 04:11:00,
2013-12-07 22:26:00,19.9,10.0,30.37,SE,129,2.0,-999.0,65,-99.99,,,0.00,0,weatherlink.com 1.10,2013-12-08 04:26:00,
2013-12-07 22:41:00,20.0,10.0,30.37,SE,130,0.0,-999.0,65,-99.99,,,0.00,0,weatherlink.com 1.10,2013-12-08 04:41:00,
2013-12-07 22:56:00,20.0,10.0,30.36,ESE,121,0.0,-999.0,64,-99.99,,,0.00,0,weatherlink.com 1.10,2013-12-08 04:56:00,
2013-12-07 23:11:00,20.0,10.0,30.36,SE,132,0.0,-999.0,65,-99.99,,,0.00,0,weatherlink.com 1.10,2013-12-08 05:11:00,
2013-12-07 23:26:00,20.0,10.0,30.36,SE,134,0.0,-999.0,66,-99.99,,,0.00,0,weatherlink.com 1.10,2013-12-08 05:26:00,
2013-12-07 23:41:00,20.0,10.0,30.35,SE,136,3.0,-999.0,66,-99.99,,,0.00,0,weatherlink.com 1.10,2013-12-08 05:41:00,
2013-12-07 23:57:00,20.0,10.0,30.34,SE,135,0.0,-999.0,66,-99.99,,,0.00,0,weatherlink.com 1.10,2013-12-08 05:57:00,